DIRECTV 8

Last updated on Fri Oct 31 2025 00:02:45 GMT+0000 (Coordinated Universal Time)

1 28659U 05019A 25303.27948231 .00000011 00000+0 00000+0 0 9994 2 28659 0.0106 226.6221 0003271 2.3479 151.4662 1.00271991 74767
UTC large
Height (km)
Speed (km/s)
/
Latitude / Longitude
Inclination (degrees)
Orbital Period (minutes)
Azimuth
Elevation
Range (km)
Doppler Factor

Next 0 passes for location: London (51.5072 / 0.1276)

Sorry there are no passes over London.